RH
63 63 63 63 62 61 60 58 56 53 50 49 47 45 42 40 39 39 41 44 47 50 52 53 54 54 53 54 58 62 66 69 71 73 73 74 75 74 72 71 71 71 71 71 72 72 73 73 73 73 74 75 76 78 81 80 80 80 81 80 79 79 78 78 78 78 79 81 84 87 89 90 90 88 85 81 79 78 77 77 78 79 79 80 80 80
66 65 64 64 63 62 60 58 56 54 53 52 51 50 47 43 41 40 41 43 45 48 50 52 53 53 52 51 52 55 60 65 69 73 74 75 75 75 73 73 72 73 73 73 73 73 73 73 73 72 72 74 76 79 82 81 81 81 80 80 79 79 78 78 79 81 84 86 87 89 89 88 86 85 83 82 80 79 79 79 80 80 80 80 80 80
68 67 66 65 64 63 61 60 58 56 55 53 52 51 49 46 45 44 44 44 45 47 49 50 52 52 52 50 49 51 55 60 65 70 74 75 75 75 75 75 75 75 75 74 74 74 73 73 72 71 70 73 75 78 81 81 80 80 80 80 80 80 80 81 83 85 86 87 88 88 87 85 83 81 81 79 79 79 79 79 79 78 78 78 78 77
70 70 69 68 66 65 63 61 59 57 55 53 51 49 48 48 49 50 51 50 49 48 48 49 51 52 52 51 50 50 52 56 61 66 71 74 75 75 74 75 75 75 74 74 74 74 73 73 72 71 70 72 75 78 80 80 79 79 79 80 80 80 82 84 86 87 87 87 87 85 83 81 80 79 79 78 78 78 79 78 78 78 78 78 77 77
73 72 71 69 68 66 64 63 60 58 56 53 52 50 50 51 54 56 57 57 56 54 51 50 50 51 52 52 51 50 51 53 57 62 67 71 73 73 73 73 73 74 73 73 73 73 74 73 72 71 70 72 75 77 79 79 79 79 79 79 80 82 85 87 88 88 88 86 84 81 79 78 78 78 78 78 78 78 78 78 78 78 78 77 77 77
74 73 73 71 69 67 66 64 62 60 58 56 55 54 54 56 58 61 64 64 63 61 57 53 51 50 51 52 52 51 51 52 55 59 63 67 70 71 70 71 72 73 73 73 74 74 75 73 72 71 71 73 76 77 78 79 79 79 78 79 82 85 87 88 88 87 86 83 81 78 77 77 77 77 78 78 78 78 78 77 77 77 77 76 76 77
74 73 73 72 70 69 68 67 66 65 64 62 61 61 61 63 65 67 70 70 69 67 63 58 54 51 49 50 50 51 51 52 55 58 61 65 67 68 69 70 71 73 74 75 76 77 76 75 73 72 72 74 76 77 78 78 78 79 80 83 85 87 88 88 87 85 83 81 79 78 77 77 77 77 77 77 77 77 77 77 77 76 76 76 76 76
75 74 73 73 73 73 72 72 71 70 69 68 67 67 68 71 73 75 76 76 75 72 69 64 60 55 51 49 49 49 50 50 52 54 57 60 63 66 68 70 73 74 76 78 79 79 77 76 74 73 73 74 76 77 77 79 80 81 83 85 86 87 87 86 85 84 82 81 79 79 78 78 77 77 77 77 77 77 78 77 76 76 75 75 75 76
77 76 75 74 74 75 75 75 74 73 73 73 73 73 75 76 78 80 81 81 80 78 75 71 67 63 58 54 52 50 50 50 50 51 52 54 56 58 62 65 70 73 77 80 81 81 79 77 75 74 74 74 75 77 78 81 82 84 85 85 86 86 86 85 84 84 83 81 80 79 78 78 78 78 78 79 79 79 79 77 76 75 75 75 76 78
79 78 78 77 76 76 76 75 75 75 75 77 78 78 79 80 81 81 82 83 83 81 79 77 73 69 65 61 58 56 55 55 55 55 55 56 56 57 58 60 64 68 73 77 80 81 79 78 77 76 75 76 77 79 81 83 83 84 85 85 85 85 85 85 84 83 81 80 79 79 78 78 79 80 80 81 81 81 79 76 76 76 76 77 78 78
80 79 79 79 79 78 77 77 77 78 79 81 83 84 83 83 83 83 82 82 81 81 79 77 75 72 69 65 63 61 60 60 60 60 61 63 64 65 66 67 68 70 73 76 78 79 79 79 79 80 80 81 82 83 84 85 85 84 84 84 85 85 84 84 83 82 81 80 80 79 78 78 79 80 81 82 81 80 77 77 77 78 79 79 79 79
80 80 80 80 80 80 79 80 81 82 84 85 87 88 86 86 85 84 83 80 79 78 77 76 74 72 71 69 66 65 64 64 64 65 65 66 68 71 73 75 77 79 80 80 80 80 80 78 79 81 83 84 84 85 85 85 85 85 85 85 85 84 84 83 82 82 81 81 80 78 78 78 79 80 81 82 81 79 78 79 80 81 81 81 80 79
80 81 81 80 81 81 81 81 82 84 86 86 86 86 84 85 84 84 83 80 78 76 76 76 75 75 74 72 71 69 68 69 69 70 70 70 70 72 74 77 79 81 83 83 81 80 79 79 80 81 82 82 82 83 84 84 85 85 86 85 84 84 83 82 82 82 81 80 79 78 77 78 80 81 82 81 80 78 79 80 81 81 81 81 81 80
81 81 82 82 81 81 81 81 82 83 83 83 83 81 80 81 82 83 83 82 80 79 78 79 79 78 78 77 75 74 73 73 74 75 75 75 74 74 75 77 79 81 82 82 81 80 78 80 81 82 82 82 83 83 84 85 86 86 86 84 83 82 82 82 82 81 79 79 79 79 79 79 80 81 82 81 79 78 78 79 80 80 80 81 81 81
82 82 83 82 80 79 80 81 81 81 79 81 81 81 80 81 83 84 84 83 82 82 81 82 83 82 82 80 80 79 78 79 80 81 81 81 80 79 79 80 81 81 81 81 80 79 78 80 82 84 84 85 85 85 85 85 85 85 83 82 82 81 81 81 80 79 78 78 79 79 80 80 80 81 82 82 80 78 78 78 79 79 79 80 80 80
81 81 82 81 79 77 77 79 80 80 79 80 81 82 83 83 84 84 84 84 83 83 83 83 83 83 82 82 82 82 82 83 84 84 84 85 84 83 82 83 82 82 80 79 78 78 78 80 81 82 83 83 84 84 84 83 81 80 79 79 79 79 80 79 79 79 79 79 80 80 80 80 80 80 81 82 81 80 77 77 78 78 78 79 80 80
80 80 79 78 77 77 76 78 79 80 81 82 83 83 83 84 84 84 83 84 83 83 82 81 81 79 77 78 80 82 83 85 86 87 87 86 86 85 85 84 83 81 80 77 76 75 76 77 78 79 79 78 78 78 78 76 74 73 73 75 76 77 78 78 79 80 81 81 81 80 79 79 79 79 80 81 82 81 78 77 77 77 78 79 79 80
81 80 79 78 77 76 76 78 80 81 83 84 84 84 85 85 85 85 84 83 82 82 81 79 77 75 73 72 74 77 81 84 86 88 88 87 86 85 84 83 82 81 79 76 75 74 73 73 73 73 72 71 71 70 69 69 69 70 72 74 75 77 79 80 81 81 81 81 81 80 79 79 79 79 79 81 81 81 80 78 77 77 78 79 80 80
80 79 79 78 76 75 76 76 78 80 82 83 84 85 86 86 86 86 87 84 82 81 80 78 75 73 72 70 70 72 75 81 84 86 88 87 86 84 83 82 82 81 79 77 75 73 73 72 70 69 68 67 65 64 64 66 68 71 74 75 77 79 81 82 82 82 81 81 81 80 79 80 80 79 79 80 80 81 81 79 78 77 78 78 79 80
77 76 77 78 77 76 76 76 77 78 81 83 84 85 86 86 86 87 87 84 82 80 78 78 76 74 72 71 70 71 74 79 84 88 89 87 86 85 84 83 83 83 81 79 77 75 74 73 71 69 67 66 65 65 66 70 72 74 76 78 80 81 82 82 82 81 81 81 80 80 80 80 80 81 83 81 80 80 82 80 78 77 77 78 79 80
77 76 75 76 77 76 74 75 77 79 80 83 86 87 86 85 85 85 85 84 82 81 79 77 76 74 72 72 72 72 76 81 86 90 90 88 87 86 86 86 85 85 83 81 78 76 75 73 71 69 68 67 68 69 71 73 75 77 78 80 81 82 82 82 81 81 81 80 80 80 80 81 81 82 83 82 81 80 80 79 77 76 76 77 78 80
79 77 75 75 76 76 74 74 76 78 81 85 87 87 85 84 84 83 83 83 82 81 80 78 76 74 73 74 73 74 78 84 88 90 89 87 86 86 86 87 86 85 83 81 79 76 75 73 71 69 66 66 68 70 73 75 77 79 81 81 82 82 81 81 81 80 80 81 80 80 80 80 81 81 82 81 81 80 81 78 77 76 77 77 78 79
83 80 78 77 77 77 76 75 76 78 82 85 86 86 85 84 83 82 82 82 82 81 80 79 77 76 76 76 76 77 79 85 89 90 90 87 84 82 83 84 84 83 81 79 76 74 73 71 70 68 66 66 67 70 73 76 78 80 81 81 81 81 81 80 80 80 81 81 80 80 80 80 81 81 81 80 80 80 80 78 77 77 77 77 78 79
89 86 83 81 79 79 79 78 78 79 82 85 86 85 85 84 83 82 81 82 82 82 81 81 80 80 80 80 80 80 81 85 89 91 91 86 82 78 77 78 79 79 77 75 73 71 70 69 68 67 66 66 68 71 74 77 78 80 81 81 81 80 80 80 80 80 80 80 80 80 80 81 80 81 81 81 80 80 80 78 77 77 77 77 77 77
95 92 89 85 83 81 80 80 80 80 82 85 87 87 87 87 87 86 85 84 84 84 84 83 83 83 82 82 83 83 82 84 88 91 91 85 80 76 73 73 74 74 73 72 71 70 69 69 69 68 68 68 69 72 75 77 78 79 80 80 80 80 79 80 80 80 80 79 79 80 80 80 80 80 81 80 80 79 80 79 78 76 76 76 77 78
98 96 93 90 87 85 83 83 82 82 83 85 87 89 90 91 92 92 91 89 88 87 87 86 84 83 81 81 82 83 82 83 86 89 89 84 80 76 73 71 71 72 71 71 71 70 71 71 71 70 70 70 71 72 74 76 78 79 79 79 79 79 80 79 79 79 79 80 80 80 80 80 80 80 80 79 79 79 78 79 78 77 76 76 77 78
98 98 97 95 93 90 88 87 86 86 86 86 88 89 91 93 95 95 94 90 89 88 87 86 83 81 80 80 80 80 80 81 84 86 87 85 81 77 74 72 72 72 72 72 72 72 73 73 73 73 73 73 72 72 73 74 75 76 78 78 79 79 79 79 79 79 79 80 80 80 80 79 79 79 80 80 79 79 78 79 79 78 76 77 78 79
97 98 98 98 97 95 93 91 90 89 89 89 89 91 93 94 94 93 90 87 87 87 87 84 82 79 78 77 77 76 77 78 80 83 86 86 83 79 75 73 73 73 74 74 74 74 75 76 76 75 75 74 73 73 72 72 73 74 75 77 78 78 79 79 79 79 79 80 80 80 79 79 79 80 81 81 80 79 79 79 79 79 78 78 78 78
96 97 97 98 98 98 97 96 94 93 93 91 91 92 94 95 94 91 86 84 85 87 86 83 80 77 76 74 74 74 75 75 77 80 84 86 84 80 77 76 76 77 77 77 77 77 77 77 77 76 75 75 74 73 71 71 71 71 72 73 75 77 78 78 78 79 79 80 80 80 79 79 80 81 81 81 81 80 79 79 79 79 79 79 78 78
96 96 96 96 97 97 98 98 97 96 95 94 93 93 95 95 94 91 86 84 85 87 86 82 80 78 76 75 75 75 74 74 75 78 84 86 84 81 79 79 80 80 81 80 80 79 77 76 76 75 75 74 73 72 70 69 69 68 67 67 68 70 72 73 74 75 77 78 78 79 79 79 80 81 81 81 81 80 79 79 79 79 80 80 79 78
95 95 96 95 94 94 95 96 97 97 97 96 96 95 95 95 94 93 89 86 86 86 85 83 81 79 78 78 77 75 73 71 73 76 83 85 84 81 80 81 82 83 83 82 81 80 76 74 72 70 70 69 69 68 67 66 66 65 63 62 61 62 63 65 67 70 72 73 75 77 78 79 80 81 81 81 80 80 79 78 78 78 79 79 80 79
92 94 94 93 93 92 93 94 95 96 97 97 97 97 96 95 95 94 92 89 87 86 84 82 81 80 80 79 77 74 72 69 70 75 82 84 84 82 81 82 83 84 85 83 81 78 75 73 68 64 64 63 63 63 63 63 62 62 61 60 60 59 59 61 64 66 68 70 73 75 77 78 79 80 80 80 80 79 78 78 78 78 79 79 80 79
91 92 92 93 92 92 91 92 93 94 95 96 96 96 97 96 95 95 95 92 89 87 85 83 81 80 80 80 78 75 72 69 70 74 82 84 85 84 83 84 85 85 86 85 82 78 75 73 69 65 63 62 61 60 60 61 61 61 61 61 61 61 61 63 64 66 68 69 71 72 73 74 75 76 76 77 77 78 78 78 78 78 78 79 78 78
91 92 92 92 93 93 92 92 92 92 94 95 96 96 96 96 95 94 95 94 92 90 87 84 82 80 80 81 80 78 75 73 73 76 83 87 87 85 85 85 86 85 86 85 84 81 77 74 72 69 67 64 63 61 61 61 62 62 63 63 63 64 64 64 65 67 68 69 69 70 70 70 70 71 71 72 73 74 74 75 76 77 77 77 78 78
93 92 92 92 93 93 93 93 93 93 93 94 95 96 96 96 96 95 95 95 94 93 90 87 82 80 79 79 79 79 78 76 76 79 86 89 89 87 86 86 85 85 85 84 83 82 80 78 76 74 71 68 66 64 63 62 63 63 64 64 64 65 65 65 66 67 67 68 69 69 68 68 68 68 68 68 68 70 71 73 75 76 77 78 79 79
94 92 90 91 92 92 93 93 94 94 94 94 94 94 94 95 96 96 96 95 95 94 93 90 86 82 80 79 79 78 77 77 78 81 87 90 90 88 86 85 84 84 84 83 82 81 80 79 77 76 74 72 69 66 64 63 63 63 64 64 64 64 65 65 65 66 67 68 68 68 68 68 68 68 67 67 68 70 72 74 76 78 79 79 79 79
93 91 88 89 90 91 91 92 93 93 94 94 93 93 92 92 92 92 93 95 95 95 95 94 91 87 84 81 80 79 78 78 79 82 86 89 90 89 87 85 84 84 84 83 82 81 80 79 77 76 75 73 69 66 63 63 63 64 64 64 64 64 65 65 65 66 67 68 68 69 69 69 69 69 69 69 71 72 74 76 77 78 78 78 78 77
90 88 86 87 88 89 90 91 91 92 92 93 92 92 91 91 89 88 88 91 94 96 96 95 94 93 90 87 85 83 82 81 82 83 85 88 90 90 88 86 85 85 85 84 82 81 81 80 78 76 74 71 67 65 63 63 64 65 65 65 65 65 66 66 66 67 68 69 69 70 70 70 71 71 71 71 72 73 74 74 74 74 74 74 73 73
88 86 85 84 85 86 87 88 89 90 90 90 90 90 90 90 89 89 88 89 91 94 96 96 96 96 94 92 91 90 89 88 87 86 86 89 91 91 90 88 87 87 87 86 84 83 82 80 79 77 74 70 67 65 64 65 66 66 67 67 67 67 68 68 68 69 70 70 71 72 72 72 72 72 73 73 73 73 74 73 73 72 72 71 71 71
85 83 83 82 82 83 83 84 85 86 88 89 89 90 91 92 93 94 93 92 93 94 96 96 96 96 96 96 96 96 95 95 94 93 91 92 93 93 93 91 90 90 90 89 88 86 84 81 78 75 71 69 67 66 66 67 67 68 68 69 69 69 69 69 69 70 71 71 72 73 73 73 73 73 73 73 74 74 74 73 73 72 72 72 71 71
83 82 81 80 81 81 82 82 83 85 87 89 91 92 94 95 95 96 96 96 96 96 96 96 96 96 96 96 96 97 97 97 97 96 96 96 96 96 95 95 94 93 93 92 90 89 87 83 80 76 73 71 70 69 69 69 69 70 70 71 71 70 70 70 71 71 72 73 73 73 74 74 74 74 74 74 74 74 74 74 74 73 73 73 72 72
83 81 80 80 80 80 81 82 83 84 86 88 91 93 95 95 95 95 95 96 96 96 96 96 96 95 95 95 96 96 97 97 97 97 97 97 97 96 96 96 95 95 95 94 92 90 88 84 81 77 75 74 74 73 73 72 72 72 73 73 73 73 72 72 72 72 73 74 74 74 75 75 76 76 75 75 75 74 74 74 75 74 74 74 73 72
84 82 81 80 80 80 80 81 82 85 87 89 91 92 93 94 94 94 94 94 95 95 95 95 95 95 95 95 95 96 96 96 97 97 97 97 97 96 96 96 96 95 95 94 92 90 88 85 82 80 78 77 77 78 78 76 74 74 74 74 75 75 74 72 72 72 72 73 73 74 74 75 75 75 75 75 75 75 75 75 75 75 75 74 73 72
86 84 83 82 81 81 80 81 82 85 88 90 91 92 93 94 94 94 94 93 93 93 93 94 95 94 93 92 92 93 94 95 95 96 96 96 96 96 96 96 96 95 95 94 91 89 87 85 83 82 80 81 81 82 81 79 77 76 76 76 76 76 75 73 72 72 72 73 73 73 74 74 75 75 75 76 76 76 76 75 75 74 74 73 73 72
90 88 87 85 84 83 82 81 82 84 87 89 91 92 93 94 95 95 94 93 92 91 92 92 93 92 90 88 88 88 89 91 93 95 95 96 96 95 95 95 95 95 95 94 92 89 87 85 84 83 82 83 84 83 82 81 79 78 77 77 77 77 76 74 74 74 74 74 74 75 75 75 76 76 77 77 77 76 75 75 74 74 73 73 72 71
94 93 91 89 88 86 84 83 83 84 87 89 90 91 93 94 95 95 94 93 92 92 92 92 92 90 87 85 84 85 85 86 89 92 95 95 95 95 95 95 95 95 95 94 93 91 89 87 86 84 84 84 85 84 83 82 81 80 78 77 77 77 76 75 75 76 76 76 76 76 76 77 77 78 79 78 76 75 74 73 73 73 73 72 72 71
96 95 94 92 90 88 86 85 85 86 87 88 89 89 91 93 94 95 94 93 93 92 93 93 92 89 86 84 83 83 83 84 86 89 93 94 94 94 94 94 94 94 94 94 94 93 92 90 89 88 87 86 85 84 82 82 81 81 80 78 77 76 75 75 74 75 76 77 77 77 77 78 79 79 79 77 76 74 73 73 73 73 73 72 71 70
97 95 93 93 91 90 88 87 86 87 88 88 88 89 90 92 94 94 94 94 93 93 93 93 92 89 87 85 84 83 83 84 85 87 90 92 93 93 94 94 94 94 94 94 94 94 94 94 93 92 92 90 87 84 82 81 81 80 80 79 78 77 76 74 73 73 75 76 77 77 78 78 79 79 78 77 76 74 73 73 72 72 72 71 70 70
97 95 92 92 91 90 89 88 88 88 88 87 88 89 90 92 93 94 93 94 93 93 92 92 90 88 87 86 85 85 85 85 85 86 87 89 91 93 94 94 93 93 93 93 93 93 94 94 94 94 94 93 91 87 84 82 80 80 80 79 78 77 76 75 74 74 75 76 77 77 78 79 79 79 79 78 77 75 73 73 72 71 71 70 70 70
97 95 92 91 91 90 89 88 88 88 87 87 87 89 90 92 94 94 94 93 93 92 91 89 88 87 86 85 85 86 87 87 86 86 86 87 89 91 93 93 93 93 93 93 93 93 93 92 92 93 93 94 93 92 89 85 82 80 79 79 78 77 76 76 75 75 76 77 78 78 79 80 80 81 81 81 79 77 74 73 71 70 70 70 70 70
97 95 93 91 90 90 89 88 88 88 87 87 87 88 90 92 94 95 95 94 93 92 90 89 87 86 85 84 84 85 86 86 86 86 86 86 87 89 92 93 93 93 92 91 90 90 89 88 87 86 87 89 91 92 92 90 86 83 80 78 77 76 76 76 76 76 77 78 79 80 81 81 82 82 82 82 80 77 74 72 70 69 69 69 70 70
Wind_Speed
24 24 24 24 24 25 26 27 27 27 29 29 28 28 27 27 28 28 29 29 29 29 29 30 31 31 31 31 29 28 27 27 27 26 26 26 26 26 26 27 27 26 26 26 26 26 26 26 26 26 27 27 27 26 26 26 25 25 25 24 24 24 24 24 23 23 23 23 23 24 24 24 24 24 25 25 26 26 26 27 27 27 28 28 28 28
24 23 23 24 24 25 26 27 28 28 29 29 29 29 29 29 29 29 29 29 29 30 30 31 32 32 33 33 32 30 29 28 27 26 26 26 26 26 26 26 26 26 26 26 26 26 26 26 27 27 27 27 27 27 26 26 25 25 25 24 24 24 24 24 23 23 23 23 24 24 24 24 24 24 25 25 26 26 26 27 27 27 27 27 28 28
22 22 23 23 24 25 26 27 28 29 30 30 30 30 29 29 29 30 30 30 30 30 31 31 32 33 33 34 34 33 31 29 28 27 26 26 25 25 25 25 25 25 26 26 26 26 26 27 27 27 28 27 27 27 26 26 26 25 25 25 24 24 24 24 24 24 24 24 24 24 24 24 24 24 25 25 26 26 26 27 27 27 27 28 28 28
22 22 22 22 23 25 26 26 27 28 29 30 30 30 30 29 29 30 30 31 31 31 31 32 32 32 33 34 35 34 32 31 29 28 26 26 25 25 25 25 25 26 26 26 27 27 27 28 28 28 28 28 28 27 27 26 26 26 25 25 24 24 24 24 24 24 24 24 24 23 24 24 24 24 25 26 26 26 27 27 27 27 27 28 28 28
23 22 22 21 22 23 25 25 26 26 27 28 29 29 29 29 29 29 30 31 31 32 32 32 32 32 32 33 34 34 33 32 30 29 28 26 26 25 25 25 26 27 27 28 28 28 28 28 28 28 28 28 28 28 27 27 26 26 26 25 25 24 24 25 25 24 24 23 23 23 23 24 24 25 25 25 26 26 27 27 27 27 27 28 28 28
23 22 22 21 21 22 22 23 23 23 24 25 26 27 28 29 29 29 28 29 30 30 31 31 30 31 31 32 33 32 32 31 30 29 28 27 26 26 26 26 27 28 28 29 29 29 29 29 29 29 29 29 28 28 27 27 27 26 26 25 25 25 25 25 25 24 23 23 23 23 23 24 24 24 25 25 26 26 27 27 27 27 27 28 28 28
23 22 21 21 22 22 21 21 21 22 22 22 23 24 25 26 27 28 28 28 28 28 28 28 28 29 29 30 30 30 30 29 29 28 28 27 27 27 27 27 28 28 29 29 29 29 29 29 29 29 29 29 28 28 28 27 27 27 26 25 25 26 25 25 24 23 23 23 23 23 23 23 24 24 25 26 26 26 27 27 27 27 27 27 28 28
22 21 21 21 21 20 20 21 21 22 22 21 20 20 21 22 24 25 27 29 28 28 26 26 26 26 27 28 28 28 28 28 28 28 28 28 27 27 28 28 28 29 30 30 30 30 30 29 29 29 29 29 29 28 28 27 27 27 26 26 26 26 25 24 23 23 23 23 23 23 23 23 24 25 25 26 26 26 27 27 27 27 27 27 27 28
22 21 21 21 20 19 19 20 21 22 21 21 20 19 19 19 20 22 24 25 27 27 26 25 24 25 26 26 27 27 27 28 28 29 30 30 31 31 31 30 30 29 29 29 30 30 30 30 30 29 29 29 29 29 28 28 27 27 26 26 26 25 24 24 23 23 22 22 22 23 23 24 24 25 25 25 26 26 26 26 26 27 27 27 27 27
24 22 21 21 21 20 19 19 20 20 21 21 21 21 20 19 19 19 20 21 23 25 26 25 24 24 25 26 26 27 27 27 28 28 29 30 31 32 33 33 32 31 30 29 29 29 30 30 30 30 30 30 29 29 28 28 27 27 26 26 25 25 24 24 23 22 22 22 22 22 23 24 24 25 25 25 25 26 26 26 26 26 27 27 27 27
23 23 21 21 21 21 21 20 19 18 19 21 21 22 22 21 19 18 17 18 20 22 24 25 25 24 23 24 25 26 26 26 27 28 28 29 29 29 29 30 31 30 30 29 29 28 29 29 29 30 30 30 29 29 28 28 27 27 26 25 25 24 24 23 22 22 22 22 22 23 23 24 24 25 25 25 25 25 25 26 26 26 27 27 27 28
21 21 20 20 19 19 20 20 19 17 18 19 18 19 21 21 21 20 18 18 19 20 21 22 24 25 24 23 24 24 25 25 26 27 27 28 28 27 26 26 26 26 27 27 27 27 28 28 29 29 29 29 29 29 28 27 27 26 26 25 25 24 23 22 22 21 21 22 22 23 24 24 24 24 25 25 25 25 25 26 26 26 27 27 28 28
21 19 18 18 18 18 18 18 18 17 18 18 17 17 18 19 21 21 20 20 19 19 19 19 21 23 24 24 23 23 23 24 24 25 25 25 26 26 26 25 25 25 24 24 25 26 26 27 28 28 29 29 28 28 27 27 26 26 25 24 24 23 22 22 21 21 22 22 23 23 24 24 24 24 24 24 25 25 25 26 26 26 27 27 28 28
19 18 17 17 17 17 18 18 17 17 18 19 20 20 19 19 19 20 20 20 20 20 19 18 19 20 21 22 23 23 23 22 22 23 23 23 24 24 24 24 25 25 24 24 25 26 26 25 25 27 27 27 27 26 26 25 25 24 23 23 23 22 22 21 21 22 22 23 23 24 24 24 24 24 24 24 25 25 26 26 26 27 27 27 28 28
17 15 13 13 14 17 18 18 18 19 20 20 20 20 20 18 18 19 19 19 19 19 18 18 18 19 20 21 22 22 22 21 21 20 21 22 23 23 23 23 24 24 24 24 26 27 27 25 25 26 26 26 26 26 25 24 23 22 22 22 22 22 22 22 22 23 23 23 24 24 24 24 24 24 24 24 25 25 26 26 26 27 27 27 28 28
18 15 12 11 14 17 18 19 19 19 20 20 19 19 18 18 18 19 19 18 17 17 16 16 15 15 17 20 21 22 22 21 20 20 21 21 22 23 23 23 23 23 24 24 25 27 27 27 27 27 28 28 28 27 25 24 23 23 22 22 22 22 22 23 23 23 24 24 24 24 24 24 24 24 24 24 25 25 26 26 26 27 27 28 28 28
18 17 16 15 15 17 19 19 19 19 19 19 19 19 19 19 19 19 19 18 17 16 15 13 8 5 9 15 19 21 22 22 21 20 20 21 22 23 23 23 22 22 23 24 24 25 26 27 28 29 30 30 30 29 27 26 25 24 23 23 23 23 23 24 24 24 24 24 24 24 24 24 24 24 24 24 25 25 25 26 26 27 27 28 28 29
19 19 18 17 17 18 19 19 19 19 19 19 19 20 20 20 20 19 19 18 17 15 14 14 11 6 4 8 13 18 21 22 21 20 20 20 21 22 22 23 23 23 23 23 24 24 25 27 28 30 31 31 31 30 29 28 26 25 24 24 24 24 24 24 24 24 24 24 24 24 24 24 24 24 24 25 25 25 25 26 26 27 27 28 28 29
21 21 20 19 20 20 20 20 20 20 20 20 20 19 19 19 20 19 19 19 18 17 16 14 14 14 11 11 13 16 19 21 22 21 19 20 20 20 21 21 22 22 22 22 23 24 25 26 28 29 30 30 30 30 29 27 26 25 25 25 25 25 25 25 25 24 24 24 24 24 24 24 24 24 24 25 25 25 25 26 27 27 28 28 29 29
24 25 24 22 22 21 21 22 23 22 22 22 21 20 19 19 19 19 19 20 20 20 19 17 16 17 17 17 17 17 18 21 21 20 18 18 19 19 19 20 21 21 21 22 23 23 24 26 27 28 28 28 27 27 26 26 25 25 25 25 25 25 25 25 25 25 25 25 25 25 24 24 24 24 25 25 25 25 26 26 27 27 28 29 29 29
26 27 28 26 24 22 22 23 24 24 24 23 22 20 20 20 19 19 20 20 21 21 20 19 19 20 20 19 18 18 18 20 20 18 16 16 17 18 19 20 20 20 21 22 23 23 24 25 26 27 27 26 25 25 25 25 25 25 25 25 25 25 25 25 25 25 25 25 25 25 25 25 24 24 25 25 25 26 26 26 27 28 28 29 29 30
27 28 29 28 27 26 25 24 25 25 25 25 24 23 22 21 21 21 22 22 21 21 21 21 22 22 21 19 18 18 19 20 20 18 14 12 14 16 18 19 20 20 20 21 22 23 24 25 26 26 26 26 25 24 24 25 25 25 25 25 25 25 25 25 25 25 25 25 25 25 25 25 25 25 25 25 25 26 26 27 27 28 29 29 30 30
30 29 28 28 28 27 26 25 25 25 26 27 27 27 25 25 24 24 24 23 23 23 23 23 23 21 20 19 18 18 19 20 20 19 15 9 10 15 17 18 19 19 20 20 21 22 24 25 26 26 26 26 25 25 25 25 25 25 25 25 25 25 25 25 25 25 26 25 25 25 25 25 25 25 25 25 26 26 26 27 28 28 29 30 30 31
30 29 27 27 28 28 27 26 25 25 26 28 30 30 29 29 28 27 25 25 23 22 21 20 19 18 18 19 18 18 19 20 20 19 15 12 12 14 16 17 18 19 19 20 21 21 23 24 25 26 26 26 26 25 25 25 25 25 25 25 25 25 25 26 26 26 26 26 25 25 25 25 25 25 25 25 26 26 27 27 28 28 29 30 30 31
28 29 28 28 29 30 29 27 27 27 28 29 30 31 31 30 28 26 25 23 21 19 17 16 15 15 16 17 17 18 19 20 20 19 16 14 14 15 16 17 18 18 18 19 20 21 22 23 25 26 26 26 26 26 26 26 25 25 25 26 25 26 26 26 26 26 26 26 26 25 25 25 24 25 25 25 26 26 27 27 28 29 29 30 31 31
26 28 30 31 31 31 31 30 29 29 29 30 31 31 30 28 26 23 21 20 18 17 16 13 12 13 15 15 16 17 19 20 21 21 19 15 14 15 16 18 18 18 18 18 19 20 21 23 24 25 26 27 27 27 26 26 26 25 25 25 26 26 26 26 26 26 26 26 25 25 25 24 24 24 25 25 26 26 27 27 28 29 29 30 31 31
27 26 27 28 30 32 32 32 31 31 30 31 31 32 31 29 25 21 19 19 19 18 16 10 8 10 13 13 14 16 18 19 21 22 21 18 15 15 17 18 19 18 18 18 18 19 20 21 22 24 25 26 27 27 27 26 26 25 25 26 26 26 26 26 26 26 26 25 25 25 24 24 24 25 25 25 26 27 27 28 28 29 29 30 30 31
30 28 26 26 28 30 32 33 34 33 33 32 32 31 31 29 25 21 21 22 22 20 17 11 8 7 7 9 13 17 18 19 20 22 22 19 16 15 17 18 19 18 18 17 18 19 20 20 22 23 24 25 26 27 27 26 26 25 26 26 26 26 26 26 26 26 25 25 25 24 24 24 25 25 25 26 26 27 27 28 28 28 29 29 29 29
30 30 29 27 26 27 29 32 34 35 35 34 34 33 32 31 28 25 25 25 23 20 17 15 13 11 9 12 15 16 18 19 20 21 22 19 17 16 18 18 19 19 18 16 16 17 19 21 22 23 23 24 25 25 26 26 26 26 26 26 26 26 26 25 25 25 24 24 24 24 24 25 25 25 26 26 26 27 27 28 28 28 28 28 28 28
27 28 29 29 27 26 25 27 30 33 35 35 36 35 33 33 32 29 28 25 23 20 18 17 17 15 13 12 10 10 13 18 21 21 22 19 16 16 18 18 19 19 18 14 9 9 13 18 22 23 24 24 25 25 26 26 26 26 26 26 26 25 25 24 24 24 24 24 24 24 25 25 25 26 26 26 26 27 27 27 27 27 27 27 27 28
25 25 26 27 28 27 25 24 24 26 30 33 35 36 35 34 33 31 28 26 24 23 20 18 17 17 15 8 4 4 6 15 20 22 23 20 17 17 19 18 19 20 20 15 6 0 4 10 16 21 23 24 25 25 26 26 25 25 25 25 25 25 25 24 24 24 24 24 24 24 25 25 25 26 26 26 26 27 27 27 27 26 26 27 27 28
23 23 23 24 25 26 25 23 22 22 23 27 31 34 35 34 32 31 30 28 27 25 23 21 19 19 18 13 9 6 5 14 19 22 25 22 19 19 20 18 18 19 21 21 14 7 3 3 7 14 18 20 22 23 23 23 23 23 23 23 24 24 24 24 23 23 24 24 24 24 24 24 25 25 25 26 26 26 27 27 27 26 26 26 27 27
23 22 22 22 23 24 24 24 23 22 21 22 25 29 31 32 31 30 31 31 30 28 25 23 21 20 19 19 17 15 14 16 18 22 25 23 19 18 19 19 18 18 20 21 21 17 10 7 8 10 13 16 18 19 20 20 20 21 21 21 22 23 24 23 23 23 24 24 24 24 24 24 24 24 25 25 26 26 27 27 27 26 26 26 26 27
22 22 22 21 21 22 23 23 23 23 22 21 22 24 26 28 28 28 29 30 31 30 29 26 24 22 20 18 18 18 19 19 19 21 24 24 20 18 18 19 19 18 18 18 19 18 16 15 13 11 11 13 15 17 18 19 19 20 20 21 22 23 24 24 24 24 24 24 24 24 25 25 25 25 25 26 26 26 27 26 26 26 26 26 26 27
21 21 20 20 20 20 21 22 22 22 22 22 22 23 24 24 25 24 25 27 30 31 32 30 28 27 24 20 18 18 19 21 21 22 23 25 22 19 18 19 20 19 17 17 16 15 14 16 16 14 12 12 14 17 18 19 19 20 21 21 22 23 24 24 24 24 24 25 25 25 25 26 26 26 26 26 27 27 26 26 27 27 27 27 27 26
19 20 21 20 19 19 19 20 21 21 21 22 23 24 24 25 25 24 23 23 25 29 31 32 32 31 29 26 23 22 22 22 22 23 24 25 24 21 18 19 20 21 19 18 17 15 13 13 15 16 14 12 12 15 17 18 18 19 20 21 22 23 23 24 24 24 24 25 25 26 26 26 26 26 27 27 27 27 27 27 27 27 27 27 27 27
19 20 21 20 20 19 19 20 20 21 21 22 23 24 25 26 27 27 26 24 24 25 28 30 32 33 32 31 29 27 25 24 23 23 24 26 26 24 20 19 21 22 21 19 18 17 14 12 12 13 13 13 12 13 15 16 16 17 19 20 21 21 22 23 23 23 24 25 25 26 26 26 26 26 27 27 27 26 27 27 27 27 27 27 27 28
19 20 21 21 20 20 19 20 20 21 22 22 24 25 26 27 28 29 29 28 27 25 26 28 30 32 33 33 32 31 28 26 25 25 25 26 27 26 23 21 21 22 23 22 21 19 16 10 7 6 7 12 15 17 16 16 15 16 18 19 19 20 21 22 22 23 24 25 26 26 26 26 26 26 27 26 26 26 27 27 27 27 27 27 27 27
19 20 20 21 21 20 20 20 21 22 23 24 25 25 26 27 28 29 29 30 30 29 27 27 28 30 32 34 34 32 30 28 26 26 26 27 28 27 26 23 22 22 23 24 23 21 19 14 10 6 4 8 13 17 18 17 17 17 18 18 19 20 21 21 22 23 24 25 25 25 26 26 26 26 26 26 26 26 27 27 27 26 26 26 26 27
20 21 21 21 22 22 22 22 23 23 24 24 24 24 24 25 25 26 28 29 30 30 30 28 28 28 31 32 33 32 31 29 28 27 27 27 28 28 27 25 23 22 23 23 23 22 21 19 17 16 15 13 12 14 16 17 18 18 17 16 17 19 20 20 21 22 23 24 25 25 26 26 26 26 26 27 27 27 27 27 27 26 26 25 25 26
21 21 22 22 22 23 23 23 23 23 23 23 22 22 22 22 22 23 24 26 27 28 29 28 27 26 27 29 31 31 30 30 28 27 27 27 28 28 27 26 24 23 22 22 23 23 22 21 20 20 19 18 17 17 18 19 19 18 18 17 18 19 20 20 21 22 23 24 25 26 26 26 26 26 26 27 27 27 27 27 27 27 26 26 26 26
21 22 22 23 23 22 23 23 23 23 23 22 21 21 22 22 22 21 21 22 23 24 26 26 24 22 21 23 25 28 28 29 28 28 27 27 28 28 28 27 26 24 23 22 22 22 23 23 22 21 20 19 18 17 18 20 21 20 20 19 20 20 21 21 22 22 23 24 25 26 26 26 26 26 26 26 27 27 27 27 27 27 27 27 27 27
21 22 23 23 23 23 22 22 21 21 21 21 21 22 23 23 22 22 21 21 21 22 23 24 23 22 20 19 20 23 25 27 28 28 28 29 29 30 30 29 28 26 23 21 21 21 23 23 23 22 22 21 19 18 18 20 21 22 21 21 20 18 16 19 21 21 22 23 24 25 25 26 26 26 26 27 27 27 27 27 27 27 27 27 28 28
20 21 22 22 22 22 22 21 21 20 20 20 21 22 23 23 23 22 21 21 21 21 22 23 23 22 21 20 20 21 22 24 26 28 29 29 30 31 31 30 29 28 26 23 21 21 21 22 23 23 23 21 20 19 20 21 21 22 22 21 21 19 18 19 21 21 22 23 24 25 25 26 26 26 26 27 27 27 27 27 28 28 28 28 28 29
19 19 20 20 20 21 21 21 21 21 21 21 21 21 21 22 22 22 21 20 20 21 21 21 20 19 18 20 20 21 21 22 23 26 28 28 29 29 30 30 30 29 27 26 25 23 21 20 21 23 23 22 21 21 21 21 22 22 22 21 21 22 24 24 24 23 23 24 25 25 25 25 25 25 26 26 27 27 27 27 28 28 29 29 29 29
18 17 18 18 19 20 21 21 21 21 21 20 21 21 21 21 21 22 21 21 20 20 20 20 19 16 15 17 19 19 19 20 21 23 24 26 27 27 27 28 28 28 27 27 27 27 24 23 22 21 21 21 21 22 23 22 21 21 22 22 21 21 23 24 24 24 24 25 26 26 26 25 25 25 25 26 27 27 28 28 28 28 29 29 29 30
17 17 17 17 18 19 20 21 21 20 20 20 21 21 21 21 21 21 21 21 20 19 19 19 18 18 17 17 18 18 18 18 19 20 21 23 24 25 25 25 26 27 28 27 27 28 28 27 26 23 21 19 19 20 23 23 22 21 21 21 21 21 22 23 24 25 25 25 26 26 26 25 24 24 25 26 27 27 28 28 28 28 28 29 29 30
17 17 17 17 17 18 19 19 20 20 19 20 20 20 20 21 21 21 20 20 20 18 17 17 17 17 17 17 18 18 18 18 18 18 19 20 21 23 23 23 24 24 25 25 26 27 27 28 28 26 24 21 19 19 20 22 22 21 21 20 20 21 22 24 25 26 25 26 27 27 26 25 24 24 25 25 26 26 27 28 28 28 28 28 29 30
16 17 17 17 17 17 18 18 19 19 19 19 19 19 19 20 21 21 20 20 20 18 17 16 16 15 15 16 17 17 18 18 17 17 17 18 18 19 20 21 21 21 21 22 22 23 24 26 27 28 28 25 23 21 21 22 22 21 20 20 21 22 23 25 26 26 25 26 27 28 27 27 27 26 25 25 25 26 28 28 28 28 28 28 29 30
17 17 18 17 17 17 18 18 19 19 19 19 19 18 18 19 20 21 21 20 20 19 18 17 17 15 14 15 16 16 16 16 16 15 15 15 16 16 17 18 18 17 16 16 17 17 18 19 22 26 29 29 27 25 23 23 23 23 22 22 23 23 23 24 25 25 25 25 26 27 28 28 28 27 26 25 25 27 28 28 29 29 28 28 29 30
17 17 18 18 17 17 18 18 19 19 19 20 19 19 18 18 19 19 20 19 19 19 19 18 18 17 15 16 16 17 17 16 15 15 15 15 15 15 15 16 16 15 12 11 10 10 9 9 12 17 23 28 29 28 26 24 23 23 23 24 25 24 24 25 25 25 25 25 25 26 26 27 27 26 25 24 24 24 25 26 28 28 28 28 28 29
Wind_Direction
256 256 255 254 253 253 252 252 251 251 251 251 250 248 247 246 247 249 250 249 247 244 242 241 241 241 242 241 240 239 238 239 239 239 240 240 240 240 240 241 241 241 241 242 244 245 247 248 250 251 251 251 251 250 250 249 249 250 250 251 251 252 253 254 255 257 258 260 262 264 266 268 270 272 272 272 273 273 274 275 276 277 277 278 279 279
255 254 253 251 249 248 249 249 248 248 249 250 250 250 248 247 247 249 250 250 249 247 244 241 240 241 242 242 242 241 240 239 239 239 239 239 239 240 240 240 241 241 242 243 245 246 248 250 251 251 251 251 250 249 249 248 248 249 249 250 251 251 252 254 255 257 259 260 262 263 266 268 270 271 272 273 274 274 275 276 276 277 277 278 278 279
254 253 251 248 246 245 246 246 246 247 248 249 250 250 248 248 248 249 250 250 251 250 247 244 242 241 242 243 243 243 241 240 240 239 239 238 239 239 239 240 241 242 244 245 247 248 250 251 252 252 251 250 249 248 248 247 248 248 249 249 250 251 252 254 256 258 258 259 261 263 266 268 269 271 272 273 274 275 275 276 276 276 277 277 277 278
252 252 250 248 246 244 244 245 245 246 247 248 248 249 248 247 247 248 249 250 251 251 250 248 245 242 242 243 243 243 242 241 240 239 238 238 238 239 240 241 243 244 246 247 249 250 252 252 252 252 250 249 248 247 246 246 246 247 247 248 249 250 252 254 255 256 257 259 261 263 265 267 269 270 271 272 273 274 275 275 275 276 276 276 277 277
250 249 249 248 247 246 245 244 244 244 245 245 246 246 246 245 245 246 247 248 250 252 252 250 248 245 243 243 243 243 242 241 239 238 238 238 239 240 241 243 245 247 248 250 251 252 253 252 252 251 249 248 246 245 245 245 245 245 246 247 248 249 251 253 254 255 257 259 260 262 264 266 267 269 270 271 272 273 274 274 275 275 276 276 277 277
250 248 247 246 246 247 246 244 242 241 241 243 243 244 244 244 244 244 244 245 247 249 251 251 249 247 244 243 243 242 242 240 239 239 238 239 240 242 243 245 247 248 250 251 252 252 252 252 251 250 248 246 245 244 244 244 244 244 245 246 247 249 250 252 253 255 256 258 259 261 263 265 267 268 270 271 272 273 274 274 275 275 276 276 277 277
252 248 246 245 246 246 245 243 240 238 237 238 240 241 241 242 242 242 242 242 243 245 247 248 249 247 245 243 242 241 241 240 239 239 240 241 243 244 246 247 248 250 251 251 252 252 252 251 250 248 246 244 243 243 242 243 243 244 245 246 247 248 250 251 253 254 256 257 259 261 263 265 267 268 270 271 272 273 273 274 275 275 276 276 276 276
252 249 245 243 244 244 244 242 239 236 234 233 234 236 237 239 240 241 241 241 241 241 242 244 245 245 244 243 242 241 240 240 239 240 240 242 243 245 246 248 249 250 251 251 252 251 251 250 248 246 244 243 242 241 241 242 243 244 245 246 247 248 249 251 252 254 255 257 259 261 263 265 267 268 269 271 272 272 273 274 274 275 275 276 276 276
249 248 244 240 239 240 242 241 238 235 231 229 229 231 233 234 236 238 239 239 239 239 239 240 241 242 242 242 242 241 241 241 241 242 242 243 244 245 246 247 248 250 250 251 251 250 250 248 246 244 242 241 240 240 241 241 242 243 244 245 246 247 248 250 251 253 255 257 259 261 263 265 267 268 269 271 271 272 273 273 274 274 274 275 275 275
244 244 244 241 238 236 238 240 238 234 229 228 228 228 229 230 232 234 235 236 236 237 237 237 238 240 241 241 242 242 243 243 244 244 245 246 247 248 249 250 250 250 250 250 250 249 248 246 244 242 241 240 239 239 240 241 242 243 243 244 245 246 247 249 250 252 254 256 259 261 263 265 267 269 270 270 271 272 272 273 273 273 274 274 274 274
242 241 241 241 239 238 237 238 237 233 228 227 228 230 231 230 229 230 232 234 234 234 234 235 235 236 238 240 240 241 242 244 245 246 246 246 247 248 250 251 251 252 252 251 249 248 246 244 242 241 239 239 238 238 239 240 241 241 242 243 244 246 247 248 250 252 254 256 259 262 264 266 267 269 269 270 271 271 272 272 273 273 273 273 274 274
240 239 239 239 238 237 236 236 234 230 226 225 227 230 232 229 227 227 230 233 233 231 231 232 234 235 236 237 238 239 240 242 244 245 246 246 245 245 246 247 248 249 250 249 248 246 244 242 240 238 238 237 237 237 238 239 239 240 241 242 243 245 246 247 249 251 254 257 260 262 265 266 268 268 269 270 271 271 272 272 273 273 274 274 274 274
237 236 236 235 234 233 232 231 230 227 223 222 223 226 228 228 226 227 230 233 234 232 230 231 233 235 235 235 235 236 238 239 241 243 244 244 244 243 243 244 245 245 245 245 244 242 241 239 237 236 235 235 235 236 236 237 238 239 240 241 243 244 245 247 249 251 254 258 261 263 265 266 267 268 269 270 271 271 272 273 273 274 274 274 275 275
234 233 232 232 231 230 228 226 224 223 223 223 224 227 228 228 225 225 229 233 235 234 233 233 235 235 235 234 234 234 235 237 238 240 241 241 241 241 241 241 242 242 241 240 239 238 236 234 233 233 232 232 233 234 235 236 237 238 240 241 242 243 244 246 248 251 255 258 261 263 265 266 267 268 269 270 271 272 272 273 273 274 274 274 274 275
229 227 228 229 230 228 226 223 222 224 226 225 225 226 228 226 223 222 226 231 233 234 234 236 238 238 237 235 233 231 232 233 235 237 239 240 240 239 238 239 240 240 238 236 236 235 233 231 229 229 228 228 229 230 232 234 236 238 239 240 241 243 244 246 249 252 256 259 261 263 264 266 267 268 269 270 271 272 273 273 274 274 274 274 275 275
226 224 224 227 230 229 226 223 223 225 227 226 224 223 222 222 221 221 223 227 229 230 231 234 238 242 241 238 234 230 229 230 231 234 237 239 239 238 236 235 236 236 235 234 233 233 232 230 228 227 226 226 226 228 230 233 235 237 238 240 241 243 244 247 250 253 256 259 261 263 264 266 267 269 270 271 271 272 273 273 274 274 274 275 275 275
225 224 227 229 230 230 227 224 223 223 224 223 222 220 219 219 220 221 222 224 226 226 227 228 230 238 242 241 235 230 227 227 229 232 234 238 239 237 234 230 230 231 232 232 231 231 231 230 229 228 227 227 227 229 231 234 236 238 239 240 241 243 245 248 250 253 256 258 261 262 264 266 267 269 270 271 271 272 273 273 274 275 275 275 275 276
224 224 226 227 229 229 226 223 221 221 220 219 220 220 220 220 220 221 222 223 224 224 226 228 230 231 235 240 235 229 223 222 224 228 232 236 237 236 232 227 226 228 229 230 230 230 230 230 230 230 230 230 230 232 234 236 237 238 239 240 241 243 245 248 251 254 256 258 260 262 264 266 267 268 270 271 271 272 273 274 275 275 276 276 276 276
225 224 224 225 226 227 225 224 222 220 219 218 218 219 219 220 220 220 221 222 223 224 226 229 233 235 237 238 237 231 224 218 219 224 228 233 236 234 229 224 224 226 228 229 230 230 230 231 231 232 232 233 234 235 236 237 237 237 238 239 241 243 246 249 251 254 256 258 260 262 264 265 267 268 269 270 271 272 273 274 275 276 276 277 277 277
226 226 224 223 223 224 225 225 222 219 218 217 215 214 215 217 218 219 221 223 225 227 228 230 233 236 237 238 238 234 227 218 215 218 225 231 234 233 227 222 221 224 227 229 229 229 230 231 232 233 234 235 235 236 236 235 235 236 237 239 241 244 247 249 252 254 256 258 260 262 263 265 266 267 268 270 271 272 274 275 276 276 277 277 278 278
226 226 225 222 220 222 226 225 222 218 216 213 210 209 211 214 216 218 220 222 224 226 227 231 233 235 236 236 236 233 227 218 213 214 223 229 232 231 226 221 220 222 226 229 230 230 230 231 232 234 234 234 234 234 233 234 234 235 237 240 242 245 248 250 252 254 256 258 260 261 263 264 265 266 268 269 271 272 274 275 276 277 277 278 278 279
225 227 226 222 220 221 224 223 221 218 213 208 206 207 210 212 214 217 219 220 221 223 225 228 232 234 235 235 234 233 229 219 214 214 221 228 232 230 225 220 218 220 225 228 229 230 230 231 233 234 235 234 233 232 232 233 234 236 238 241 244 246 248 250 252 254 256 258 260 261 262 263 264 265 267 268 270 272 273 275 276 277 277 278 279 279
225 227 226 223 221 221 222 222 220 216 211 208 207 207 208 210 213 215 217 217 219 222 225 228 232 235 235 235 235 233 230 224 218 216 220 226 232 230 225 219 218 221 225 227 228 229 230 232 233 235 236 235 234 233 233 234 236 238 240 242 244 247 248 250 252 254 257 258 260 261 262 263 264 265 266 268 270 271 273 274 276 277 278 279 280 280
225 226 225 223 222 222 221 220 218 214 211 209 210 211 211 213 215 216 218 219 220 221 224 227 231 234 235 236 235 233 230 226 220 217 219 227 233 231 225 218 217 220 225 227 228 228 230 232 234 235 236 236 235 235 235 237 238 240 242 244 245 247 249 251 253 255 257 259 260 261 261 262 263 264 266 268 269 271 273 274 276 278 279 280 280 281
227 225 225 224 223 222 221 220 217 215 212 211 211 213 214 216 217 219 221 220 219 218 219 222 225 229 231 231 232 231 229 225 219 216 218 228 235 233 227 220 218 221 227 229 229 229 229 231 233 235 236 237 237 237 237 238 240 242 243 244 246 247 249 252 254 256 257 259 260 260 261 261 263 264 266 268 270 271 273 275 276 278 280 281 282 282
238 230 226 225 224 224 223 221 219 218 215 213 212 212 213 214 215 217 218 217 214 211 210 213 218 224 225 226 227 228 227 224 220 217 219 226 233 234 230 224 222 224 229 230 230 229 229 230 232 235 236 238 239 239 239 240 241 242 243 245 246 248 250 252 254 256 257 258 259 259 260 261 262 264 266 268 270 272 274 275 277 279 280 282 283 284
250 242 233 228 225 224 224 223 222 220 218 217 215 213 211 210 210 211 213 212 209 205 205 209 216 221 223 224 225 226 226 223 220 219 219 222 228 232 230 226 224 226 230 232 232 230 230 231 233 235 237 239 241 242 242 242 243 243 244 245 246 248 251 253 255 256 257 257 258 259 259 261 262 264 266 268 270 272 274 275 277 279 282 284 285 285
255 253 247 239 232 227 224 224 223 222 220 219 217 214 211 207 206 209 213 212 208 205 207 209 212 214 216 221 225 226 224 223 220 218 215 217 224 230 229 226 225 226 229 233 235 234 233 233 235 237 238 241 243 244 245 244 244 244 245 246 247 249 251 253 254 255 256 256 257 258 259 261 263 265 267 268 270 272 274 276 278 281 283 285 285 285
254 255 255 252 246 238 231 226 224 223 221 220 218 216 212 208 207 210 213 211 207 205 209 213 216 218 220 224 226 227 225 224 221 215 210 213 221 228 227 225 223 224 225 231 235 237 237 237 237 238 239 241 243 245 246 246 245 245 246 247 247 248 250 251 252 254 255 256 257 258 260 262 263 265 267 269 270 272 274 276 279 282 283 284 284 284
252 253 254 255 255 252 246 238 232 227 224 223 221 219 215 212 211 211 213 210 206 205 209 214 216 218 220 222 225 226 227 225 220 212 205 208 217 225 223 222 221 220 219 221 228 237 239 239 238 238 239 241 242 243 245 245 246 246 247 247 247 247 247 249 250 252 254 256 257 259 261 262 264 265 267 268 270 272 274 276 279 281 283 283 283 283
247 248 250 252 253 255 255 252 245 236 230 227 224 223 221 217 215 213 212 208 206 207 210 212 214 214 214 213 210 215 222 223 217 209 204 206 214 221 219 218 219 218 214 211 202 140 238 239 238 237 237 239 240 241 243 244 245 246 246 247 247 246 246 248 251 253 256 258 259 260 262 263 264 265 267 268 270 272 274 276 278 280 282 282 282 281
242 243 245 247 249 250 252 253 252 247 239 233 229 226 225 222 218 214 211 209 208 209 211 213 215 215 214 214 216 219 221 220 214 207 204 207 214 219 217 216 217 217 214 211 211 213 217 229 232 232 232 233 235 238 240 241 242 243 244 245 246 247 249 250 253 255 258 259 260 261 262 263 264 265 267 268 270 272 273 275 277 279 279 280 280 280
238 239 240 242 243 245 246 247 248 247 245 240 234 230 227 226 223 218 214 211 210 209 210 213 215 216 217 218 221 226 227 223 215 207 204 206 211 217 217 216 216 216 214 214 216 220 225 232 235 233 230 229 232 235 237 239 241 242 243 244 245 248 252 254 255 256 258 260 261 262 263 263 264 266 267 268 270 271 273 274 275 276 276 277 277 279
232 233 235 236 237 238 240 241 242 242 242 240 238 234 231 229 227 223 218 214 212 210 210 210 213 216 217 219 222 226 228 226 219 210 205 204 208 214 215 214 214 214 212 213 217 222 229 234 238 240 239 238 237 238 239 241 242 244 245 246 247 250 253 255 256 257 259 260 262 263 264 265 266 267 268 269 270 271 272 273 273 273 273 274 275 277
226 227 228 229 230 231 233 234 235 236 236 236 236 235 234 234 233 229 223 218 214 212 212 211 213 215 215 217 219 223 225 224 220 214 207 204 207 212 213 214 214 212 211 212 214 219 228 233 234 236 241 246 247 246 245 245 246 247 248 249 250 252 254 256 257 258 260 261 262 264 265 266 267 268 269 270 271 271 272 272 273 272 272 272 274 276
220 223 226 225 224 224 225 227 228 230 230 232 232 233 234 234 236 236 234 226 219 215 214 214 215 216 216 217 218 220 222 222 220 215 210 208 208 210 213 216 215 212 210 211 213 215 221 228 231 232 236 243 250 253 252 249 248 248 249 250 251 253 255 257 258 259 260 261 262 264 265 266 267 268 269 270 271 272 272 272 272 272 273 273 274 274
217 221 224 223 221 220 221 223 224 225 226 228 229 230 231 232 234 236 238 237 231 223 217 216 216 217 218 220 222 223 224 223 221 218 214 212 211 211 213 217 216 212 209 211 213 214 216 222 228 232 234 238 245 252 254 251 248 246 246 249 251 253 255 257 258 259 260 261 262 264 265 266 267 268 269 270 271 272 272 271 271 272 273 274 274 274
219 222 223 223 221 219 218 219 221 222 224 225 227 228 229 230 231 233 235 237 237 233 226 221 219 218 219 221 223 224 224 224 223 221 218 215 212 212 213 216 216 214 211 212 213 213 213 216 222 227 233 240 244 248 251 250 248 247 248 251 253 255 256 258 259 259 260 261 262 264 265 266 266 267 268 269 270 271 271 271 272 273 274 275 276 276
220 223 225 224 222 220 219 219 221 223 225 226 227 228 228 229 230 231 232 233 235 235 233 228 223 220 219 220 222 223 224 223 223 222 220 216 214 212 213 215 216 216 214 213 213 213 214 216 219 221 227 243 247 248 249 248 248 249 252 256 258 258 258 259 259 259 259 260 261 262 264 264 264 265 266 267 268 269 270 271 273 274 275 276 278 278
223 226 227 227 225 224 223 223 224 225 226 227 227 228 227 228 229 230 231 232 233 234 234 232 227 222 220 219 219 220 221 221 221 220 219 216 214 212 212 214 216 217 215 215 215 215 217 221 226 230 235 240 246 248 249 247 247 249 253 258 260 260 259 259 260 259 259 259 259 260 262 263 263 263 264 265 266 267 268 270 272 273 274 275 277 280
224 227 229 229 228 227 225 224 224 225 225 225 224 223 223 223 224 225 227 229 230 231 232 231 228 223 218 216 215 216 216 217 217 217 217 216 215 215 215 215 216 217 216 216 217 218 220 224 230 234 238 241 244 248 250 249 249 250 252 254 258 262 264 263 261 260 260 259 258 258 259 261 262 263 263 264 265 266 267 268 270 272 274 274 274 275
223 226 228 228 228 227 227 226 225 224 223 221 220 219 219 219 219 220 221 222 224 225 226 226 225 222 219 216 214 213 213 214 215 216 218 219 220 221 220 220 220 219 218 218 219 221 223 226 230 234 237 239 242 246 249 250 251 251 251 253 258 264 268 266 262 260 258 257 257 257 257 258 259 261 262 264 265 266 267 268 269 270 271 272 272 272
223 225 226 227 227 226 226 225 223 220 218 216 216 217 218 218 217 217 218 219 220 221 222 222 223 223 223 222 221 219 218 218 218 220 222 225 227 228 228 227 225 223 220 219 221 224 226 228 231 234 237 238 239 243 247 251 252 252 251 252 255 260 265 265 263 260 258 256 256 256 256 256 258 260 263 265 267 268 269 269 268 268 269 270 271 271
222 224 225 225 225 224 224 223 220 217 214 212 213 216 217 217 216 215 216 218 219 219 219 219 221 223 225 227 227 227 227 227 228 228 230 231 233 233 233 232 230 228 224 221 222 225 228 230 233 235 237 237 238 241 245 249 251 252 251 251 251 252 254 260 263 263 260 258 256 256 256 257 259 262 265 267 268 269 269 269 269 268 268 268 269 269
220 221 222 222 221 220 220 220 219 217 215 214 214 215 216 215 214 214 215 217 218 218 217 216 216 219 224 227 228 228 229 231 233 234 234 235 235 235 234 233 231 229 226 224 223 225 226 229 233 235 236 237 238 240 243 247 249 251 251 251 251 251 254 257 260 260 259 258 257 257 257 258 261 264 266 267 268 268 268 268 268 269 269 268 268 269
219 218 218 218 217 217 217 218 217 216 215 215 215 216 215 214 213 213 214 215 216 215 213 211 210 213 219 223 224 225 226 228 230 232 233 233 233 233 232 232 230 228 227 226 227 227 227 229 232 234 236 237 239 240 241 243 246 249 251 252 252 253 255 257 257 256 255 256 257 258 259 260 261 263 265 267 268 269 269 268 268 268 268 269 269 269
218 217 216 215 215 216 217 217 215 214 214 215 217 217 216 214 212 212 214 214 213 211 209 207 207 211 216 219 219 219 220 222 223 224 225 226 227 228 228 228 229 228 227 227 228 230 230 232 233 233 233 236 239 241 242 242 243 246 249 251 252 254 255 256 257 256 254 255 256 257 259 260 261 262 264 266 268 270 269 269 267 267 267 267 268 269
217 216 216 215 214 215 215 214 213 212 213 215 216 216 216 213 211 210 211 211 210 207 204 202 204 210 215 218 217 216 215 215 216 215 215 217 219 222 223 224 225 225 226 227 229 231 233 234 234 233 233 234 238 243 244 244 244 245 247 250 252 253 255 257 258 258 256 255 255 256 257 257 258 260 264 267 269 269 270 270 269 267 266 267 268 269
219 217 218 217 215 213 214 213 212 212 212 214 214 215 214 213 211 209 208 208 206 204 202 200 202 207 213 217 217 216 215 214 214 212 210 210 212 214 216 218 219 220 222 225 228 232 235 237 237 236 235 234 237 242 246 247 247 247 249 250 252 254 257 259 259 258 257 256 255 255 255 255 256 258 262 265 268 269 270 271 270 269 268 267 267 268
223 221 221 219 216 214 213 212 211 211 212 213 213 213 212 211 209 208 207 205 204 204 203 202 203 206 210 214 216 216 215 215 215 214 212 210 208 207 208 209 210 211 215 221 226 231 236 241 243 242 240 237 236 239 244 248 251 252 252 253 253 255 256 258 259 258 257 256 255 255 255 255 255 257 258 261 265 268 270 271 271 270 269 268 268 269
227 224 222 221 219 217 215 213 212 212 212 213 213 212 210 208 207 205 204 203 203 204 205 205 205 207 210 213 214 215 215 215 216 216 215 211 207 203 201 201 200 201 206 214 220 225 231 238 245 246 245 240 237 236 238 243 249 252 253 254 254 254 254 256 257 257 256 255 255 255 255 254 255 255 255 257 261 266 269 270 270 270 270 270 270 271